Weather in João Pessoa

Brazil     7°05′35″S   34°51′02″W
temp.,
°C
wind,
m/s
gust,
m/s
humid.,
%
clouds,
%
prec.,
mm/h
press.,
hPa
HPBL,
m
15 may, sat
sat1500:00+26se577897 1.5 1013673
03:00+26sse568098 2.7 1012600
06:00+26se578015 2.5 1013607
09:00+27se787711 5.8 1015886
12:00+27se897785 1.2 10131012
15:00+27sse89775 2.3 1012964
18:00+27sse810798 0.3 1012877
21:00+26sse810805 0.7 1014897
16 may, sun
sun1600:00+26sse798031 0.3 1014813
03:00+25sse798271 0.7 1012763
06:00+26sse798066 0.9 1013898
09:00+27sse777230 1.2 10151101
12:00+28sse776860 0.0 10131079
15:00+27sse677362 0.0 10121009
18:00+26sse787928 0.3 1014738
21:00+26sse788042 0.9 1015698
17 may, mon
mon1700:00+26sse687955 0.3 1014844
03:00+26s578049 0.5 1013830
06:00+26sse677827 0.1 1014831
09:00+27sse677486 0.1 1015868
12:00+28sse777056 0.1 10131067
15:00+27sse677540 0.1 1012936
18:00+26sse68798 0.9 1013643
21:00+26sse678110 1.9 1015629
18 may, tue
tue1800:00+25sse468330 1.3 1014564
03:00+25s458389 3.3 1013541
06:00+25s458351 1.3 1014513
09:00+27se457867 2.3 1015592
12:00+27ese56788 2.3 1013803
15:00+27ese567819 3.6 1012827
18:00+27ese56775 0.3 1013753
21:00+27ese66785 0.4 1015664
19 may, wed
wed1900:00+26se567496 0.0 1014731
03:00+26se457310 0.0 1013674
06:00+26sse347767 0.0 1014647
09:00+27sse457632 0.1 1015784
12:00+27se557996 0.5 1014636
15:00+28ese567446 0.9 1012905
18:00+27ese56789 0.2 1013659
21:00+27ese567818 0.3 1014670